This is the latest recevied weather packets stored in our database for station/object KC5DP. If no packets are shown the sender has not sent any weather packets the latest 10 day(s).
| Time | Temp. | Humidity | Pressure | Rain* | Wind** | Luminosity | Snow |
|---|---|---|---|---|---|---|---|
| 1777635639 | 17.22° C | 99% | 1010.7 hPa | 0 mm | - | 3 W/m² | - |
| 1777635336 | 17.22° C | 99% | 1011.1 hPa | 0 mm | - | 1 W/m² | - |
| 1777635033 | 17.22° C | 99% | 1010.7 hPa | 0 mm | - | 1 W/m² | - |
| 1777634729 | 16.67° C | 99% | 1010.2 hPa | 0 mm | - | 1 W/m² | - |
| 1777634426 | 16.67° C | 99% | 1010.3 hPa | 0 mm | - | 0 W/m² | - |
| 1777634123 | 16.67° C | 99% | 1010.2 hPa | 0 mm | - | 0 W/m² | - |
| 1777633820 | 17.22° C | 99% | 1010.2 hPa | 0 mm | - | 0 W/m² | - |
| 1777633518 | 17.22° C | 99% | 1010 hPa | 0 mm | - | 0 W/m² | - |
| 1777633215 | 17.22° C | 99% | 1010.7 hPa | 0 mm | - | 0 W/m² | - |
| 1777632912 | 17.22° C | 99% | 1010.5 hPa | 0 mm | - | 0 W/m² | - |
| 1777632002 | 17.22° C | 99% | 1010.7 hPa | 0 mm | - | 0 W/m² | - |
| 1777631700 | 17.22° C | 99% | 1010.8 hPa | 1.78 mm | - | 0 W/m² | - |
| 1777631397 | 17.22° C | 99% | 1011.2 hPa | 1.78 mm | - | 0 W/m² | - |
| 1777631094 | 17.22° C | 99% | 1011 hPa | 0 mm | - | 0 W/m² | - |
| 1777630791 | 17.22° C | 99% | 1011.1 hPa | 1.27 mm | - | 0 W/m² | - |
| 1777630487 | 17.22° C | 99% | 1011.2 hPa | 1.27 mm | - | 0 W/m² | - |
| 1777630184 | 17.22° C | 99% | 1011.2 hPa | 0 mm | - | 0 W/m² | - |
| 1777629882 | 17.22° C | 99% | 1011.2 hPa | 0 mm | - | 0 W/m² | - |
| 1777629580 | 17.22° C | 99% | 1011.6 hPa | 1.78 mm | - | 0 W/m² | - |
| 1777629276 | 17.22° C | 99% | 1011.5 hPa | 1.78 mm | - | 0 W/m² | - |
| 1777628971 | 17.22° C | 99% | 1011.3 hPa | 1.27 mm | - | 0 W/m² | - |
| 1777628669 | 17.22° C | 99% | 1011.1 hPa | 1.27 mm | - | 0 W/m² | - |
| 1777628365 | 17.78° C | 99% | 1011.2 hPa | 1.78 mm | - | 0 W/m² | - |
| 1777628060 | 17.22° C | 99% | 1011.5 hPa | 1.78 mm | - | 0 W/m² | - |
| 1777627760 | 17.78° C | 99% | 1011.7 hPa | 0 mm | - | 0 W/m² | - |
* Rain latest hour (hover to see other rain measurements)
** Current wind speed in m/s (hover to see current wind gust speed)